Regional Weather Roundup
Issued by NWS Columbia, SC

Home | Current Version | Previous Version | Text Only | Print | Product List | Glossary On
Versions: 1 2 3 4 5 6 7 8 9 10 11 12 13 14 15 16 17 18 19 20 21 22 23 24 25 26 27 28 29 30 31 32 33 34 35 36 37 38 39 40 41 42 43 44 45 46 47 48 49 50
582
ASUS42 KCAE 251110
RWRCAE
REGIONAL WEATHER ROUNDUP
NATIONAL WEATHER SERVICE COLUMBIA SC
700 AM EDT WED APR 25 2018

NOTE: "FAIR" INDICATES FEW OR NO CLOUDS BELOW 12,000 FEET WITH NO
SIGNIFICANT WEATHER AND/OR OBSTRUCTIONS TO VISIBILITY.

NOT ALL STATIONS ARE QUALITY CONTROLLED BY THE NATIONAL
WEATHER SERVICE. USE DATA WITH CAUTION...ESPECIALLY
DEWPOINT OBSERVATIONS.

SCZ001>056-GAZ040-063>065-077-251200-
...UPSTATE SOUTH CAROLINA...

CITY           SKY/WX    TMP DP  RH WIND       PRES   REMARKS
ANDERSON       FAIR      53  51  93 SW3       29.81R
LIBERTY        FAIR      50  50 100 CALM      29.80R
SPARTANBURG    MOCLDY    55  54  94 W5        29.79R
CLEMSON        FAIR      54  50  86 W13       29.81R
GREENVILLE     FOG       56  56 100 CALM      29.81R VSB 1/4
GREENWOOD      FAIR      53  53 100 W6        29.82R
GREER          CLOUDY    56  56 100 NW3       29.81R
ROCK HILL      CLOUDY    57  57 100 CALM      29.78R
CHESTER        FOG       55  55 100 SW3       29.80R VSB 1/4
LAURENS        FAIR      54  54 100 SW6       29.80R


...CENTRAL SOUTH CAROLINA...

CITY           SKY/WX    TMP DP  RH WIND       PRES   REMARKS
COLUMBIA APT   FAIR      57  56  96 SW6       29.79R
COLUMBIA OWENS FAIR      57  55  93 SW5       29.80R
MCENTIRE ANGB  CLEAR     56  55  97 SW3       29.80R
ORANGEBURG     FAIR      55  53  93 SW5       29.81S
SUMTER SHAW    FAIR      58  54  88 W6        29.76S
AIKEN          FAIR      52  52 100 W6        29.84S
MANNING        FAIR      54  52  94 CALM      29.80R
CAMDEN         CLOUDY    59  57  94 CALM      29.79S
LANCASTER      FOG       57  57 100 SW3       29.79R VSB<1/4
WINNSBORO      PTSUNNY   54  54 100 CALM      29.79R FOG


...EASTERN AND COASTAL SOUTH CAROLINA...

CITY           SKY/WX    TMP DP  RH WIND       PRES   REMARKS
MYRTLE BEACH   FAIR      61  56  83 W7        29.81R
N MYRTLE BCH   MOCLDY    61  57  87 SW7       29.78R
CONWAY         FAIR      55  55 100 SW5       29.80R
MARION         PTSUNNY   59  55  88 W7        29.79R
HARTSVILLE     CLOUDY    57  55  94 W5        29.79R
FLORENCE       MOCLDY    60  57  89 SW8       29.79R
DARLINGTON     FAIR      59  58  96 SW6       29.79R
CHARLESTON APT FAIR      60  56  86 W6        29.82R
MOUNT PLEASANT FAIR      63  57  82 W5        29.83R
WALTERBORO     FAIR      59  55  88 W6        29.84R
BEAUFORT       FAIR      59  57  93 SW9       29.85


...EASTERN GEORGIA...

CITY           SKY/WX    TMP DP  RH WIND       PRES   REMARKS
AUGUSTA BUSH F FAIR      54  53  97 CALM      29.82S
AUGUSTA DANIEL FAIR      58  54  86 CALM      29.83R
THOMSON        FAIR      55  53  92 N5        29.88R
WASHINGTON     FAIR      54  52  94 W6        29.83R
CLAXTON        FAIR      58  56  94 CALM      29.87R
SYLVANIA       FAIR      57  56  97 CALM      29.86R
STATESBORO     FAIR      58  32  37 W5        29.86R
SAVANNAH       FAIR      58  55  90 W7        29.87R


...SOUTHERN NORTH CAROLINA...

CITY           SKY/WX    TMP DP  RH WIND       PRES   REMARKS
CHARLOTTE      MOCLDY    57  57 100 W3        29.78R
MONROE         FAIR      56  56 100 W6        29.76R
WADESBORO      FAIR      58  55  90 W3        29.76R
ROCKINGHAM     CLOUDY    60  59  98 W8        29.76R
RUTHERFORDTON  FOG       52  52 100 CALM      29.81R VSB 1/4
ASHEVILLE      MOCLDY    54  51  90 N9        29.84R

$$




USA.gov is the U.S. government's official web portal to all federal, state and local government web resources and services.